TimeCDT,TemperatureF,Dew PointF,Humidity,Sea Level PressureIn,VisibilityMPH,Wind Direction,Wind SpeedMPH,Gust SpeedMPH,PrecipitationIn,Events,Conditions,WindDirDegrees,DateUTC
12:15 AM,37.4,35.6,93,29.92,7.0,SSW,3.5,-,N/A,,Clear,210,2012-10-21 05:15:00
12:35 AM,39.2,35.6,87,29.94,10.0,SW,3.5,-,N/A,,Clear,230,2012-10-21 05:35:00
12:55 AM,41.0,35.6,81,29.94,10.0,WSW,3.5,-,N/A,,Clear,240,2012-10-21 05:55:00
1:15 AM,41.0,35.6,81,29.95,10.0,WSW,4.6,-,N/A,,Clear,240,2012-10-21 06:15:00
1:35 AM,41.0,35.6,81,29.96,10.0,WSW,4.6,-,N/A,,Clear,250,2012-10-21 06:35:00
1:55 AM,41.0,35.6,81,29.95,10.0,WSW,3.5,-,N/A,,Clear,250,2012-10-21 06:55:00
2:15 AM,41.0,35.6,81,29.96,10.0,Calm,Calm,-,N/A,,Clear,0,2012-10-21 07:15:00
2:35 AM,41.0,35.6,81,29.96,10.0,Calm,Calm,-,N/A,,Clear,0,2012-10-21 07:35:00
2:55 AM,37.4,35.6,93,29.97,10.0,Calm,Calm,-,N/A,,Clear,0,2012-10-21 07:55:00
3:15 AM,37.4,35.6,93,29.97,10.0,Calm,Calm,-,N/A,,Clear,0,2012-10-21 08:15:00
3:35 AM,37.4,35.6,93,29.97,10.0,Calm,Calm,-,N/A,,Clear,0,2012-10-21 08:35:00
3:55 AM,35.6,35.6,100,29.98,10.0,Calm,Calm,-,N/A,,Clear,0,2012-10-21 08:55:00
4:15 AM,35.6,33.8,93,29.98,7.0,Calm,Calm,-,N/A,,Clear,0,2012-10-21 09:15:00
4:35 AM,35.6,33.8,93,29.98,5.0,Calm,Calm,-,N/A,,Clear,0,2012-10-21 09:35:00
4:55 AM,35.6,33.8,93,29.98,10.0,Calm,Calm,-,N/A,,Clear,0,2012-10-21 09:55:00
5:15 AM,33.8,33.8,100,29.98,7.0,Calm,Calm,-,N/A,,Clear,0,2012-10-21 10:15:00
5:35 AM,35.6,33.8,93,29.99,10.0,Calm,Calm,-,N/A,,Clear,0,2012-10-21 10:35:00
5:55 AM,33.8,33.8,100,30.00,7.0,Calm,Calm,-,N/A,,Clear,0,2012-10-21 10:55:00
6:15 AM,33.8,32.0,93,30.00,7.0,Calm,Calm,-,N/A,,Clear,0,2012-10-21 11:15:00
6:35 AM,33.8,32.0,93,30.00,5.0,Calm,Calm,-,N/A,,Clear,0,2012-10-21 11:35:00
6:45 AM,35.6,33.8,93,30.00,10.0,Calm,Calm,-,N/A,,Clear,0,2012-10-21 11:45:00
6:55 AM,33.8,32.0,93,30.00,10.0,Calm,Calm,-,N/A,,Clear,0,2012-10-21 11:55:00
7:45 AM,35.6,33.8,93,30.02,10.0,Calm,Calm,-,N/A,,Clear,0,2012-10-21 12:45:00
8:45 AM,42.8,39.2,87,30.03,10.0,Calm,Calm,-,N/A,,Clear,0,2012-10-21 13:45:00
9:45 AM,48.2,41.0,76,30.04,10.0,South,5.8,-,N/A,,Clear,190,2012-10-21 14:45:00
10:45 AM,53.6,42.8,67,30.03,10.0,South,6.9,-,N/A,,Clear,190,2012-10-21 15:45:00
11:45 AM,57.2,42.8,59,30.02,10.0,SSE,10.4,-,N/A,,Clear,160,2012-10-21 16:45:00
12:45 PM,59.0,42.8,55,30.01,10.0,SSE,9.2,-,N/A,,Clear,160,2012-10-21 17:45:00
1:45 PM,60.8,44.6,55,29.98,10.0,ESE,8.1,-,N/A,,Clear,120,2012-10-21 18:45:00
3:45 PM,57.2,46.4,67,29.98,10.0,ESE,8.1,-,N/A,,Clear,110,2012-10-21 20:45:00
4:45 PM,57.2,46.4,67,29.98,10.0,ESE,9.2,-,N/A,,Clear,110,2012-10-21 21:45:00
5:45 PM,53.6,46.4,77,29.97,10.0,ESE,9.2,-,N/A,,Clear,120,2012-10-21 22:45:00
6:45 PM,53.6,46.4,77,29.99,10.0,ESE,5.8,-,N/A,,Clear,120,2012-10-21 23:45:00
7:45 PM,51.8,46.4,82,30.00,10.0,SSE,4.6,-,N/A,,Clear,150,2012-10-22 00:45:00
8:45 PM,51.8,46.4,82,29.99,10.0,Calm,Calm,-,N/A,,Clear,0,2012-10-22 01:45:00
9:15 PM,51.8,46.4,82,29.99,10.0,Calm,Calm,-,N/A,,Clear,0,2012-10-22 02:15:00
9:35 PM,51.8,46.4,82,29.99,10.0,Calm,Calm,-,N/A,,Clear,0,2012-10-22 02:35:00
9:55 PM,51.8,46.4,82,29.99,10.0,Calm,Calm,-,N/A,,Clear,0,2012-10-22 02:55:00
10:15 PM,51.8,46.4,82,29.99,10.0,Calm,Calm,-,N/A,,Clear,0,2012-10-22 03:15:00
10:35 PM,50.0,46.4,87,29.99,10.0,Calm,Calm,-,N/A,,Clear,0,2012-10-22 03:35:00
10:55 PM,46.4,42.8,87,29.99,10.0,Calm,Calm,-,N/A,,Clear,0,2012-10-22 03:55:00
11:15 PM,46.4,44.6,93,29.98,10.0,SE,3.5,-,N/A,,Clear,140,2012-10-22 04:15:00
11:35 PM,48.2,44.6,87,29.98,10.0,SSE,3.5,-,N/A,,Clear,160,2012-10-22 04:35:00
11:55 PM,44.6,42.8,93,29.98,5.0,Calm,Calm,-,N/A,,Clear,0,2012-10-22 04:55:00